DECAYED

OBJECT E, 57428 (Decayed)

Orbit data source: Space-Track

You're viewing an Uncataloged Satellite

Recently launched and/or uncataloged satellites may have evolving metadata. Metadata may include but not limited to: Owner, Maufacturer, Bus, Motor, and Mission.

OBJECT E, 57428 was a satellite owned by CNSA (CN) in LEO that was launched on Sun, 23 Jul 2023 UTC launched from the Taiyaun Space Center, China (TSC). Unknown objects in Earth's orbit typically refer to objects detected orbiting the Earth but have not yet been identified or cataloged. These objects could be anything from previously untracked satellites, spent rocket stages, debris from satellite collisions, or even natural meteoroids temporarily captured by Earth's gravity. This object's orbit decayed before it could be identified.

Not visible in the next 10 days
Identifier
57428, 2023-104E
Orbit
Decayed
Last TLE update
1 year ago
Origin
Manufacturer
CAST
Mission
Decayed spacecraft
Bus & Motor
Unknown
Mass
Unknown
Launch date (UTC)
2023-07-23 (2 years ago)
Launch vehicle
Unknown
Launch site
Taiyaun Space Center, China (TSC)
Object type
Unknown
Shape & HBR
Unknown
Radar Cross Section
Medium (>0.1 m² and <1 m²)

Expand to show TLE details & history

TLE from 1 year ago
0 OBJECT E
1 57428U 23104E   24121.47672315  .14555776  25151-5  63075-3 0  9994
2 57428  97.3282 196.6327 0015068 270.3772  89.5802 16.41890573 43554
Epoch: 2024-04-30T11:26Z
TLE epoch observation values (Epoch: 2024-04-30T11:26:28.88Z)
Latitude
Longitude
166.11217°
Altitude
163.977 km
Speed
7.808 km/s
True Right ascension
13h 06m 31s
True Declination
0° 00' 00"
Sunlit
Object was in full shadow at epoch
Visualization orbit readout
Visualization observer readout
Orbital elements
Apogee altitude
167.428 km
Perigee altitude
147.732 km
Semi-major axis
6,535.717 km
Eccentricity
0.00151
Inclination
97.3282°
RAAN
196.6327°
Arg. of periapsis
270.3772°
True anomaly
89.75286°
Mean anomaly
89.5802°
Eccentric anomaly
89.66653°
Mean motion
4.10774 °/min
Orbital period
87.64 mins
BSTAR
0.00063075
Loading maneuver chart data...
Loading SW <> Apogee altitude chart data...
Loading historical data...
Loading historical data...
Loading historical data...
Loading historical data...
Loading historical data...
Loading historical data...
Loading historical data...
Other satellites on launch #104 in the year 2023 (2023-07-23 UTC)
|